Puerto Banus, Marbella

>

This is an optional block (switch it off / on) in the settings - file ($SITE['banners'] = false;)

You can display ads, any other important text or photo’s using text / html or PHP code.

You can place one or more at the top and or bottom and it can all be different for content / size .



Meteosat more information blitzortung!


Radar lluvias  rain snow radar


Visita nuestra red de sitios de meteo:

Documentation for the template used

MeteoibericaRed estaciones Meteorologicas

MeteoclimaticRed estaciones Meteorologicas



Sin Advertencias climatologicas .En este momento tenemos Nivel Verde.    No hay Alarmas

Pagina Historial Weather Underground texto

Diario Resumen January 4, 2016 Unidades:  Métrico    impérial   Tanto
« Anterior Dia
Siguiente Dia »
Diario Semana Mensual Anual Personalizada
  Maxima: Minima: Media:
Temperatura: -17.8 °C -8.4 °C -7.7 °C
Punto de rocío: -17.8 °C -10.6 °C -9.7 °C
Humedad: Humidity % 71 % 80 %
Velocidad del Viento: 0 km/h 7.7 km/h 35.9 km/h
Ráfagas de viento: 0 km/h - -
Viento:- - West
Pression baro: 0 hPa 34198.6 hPa -
Précipitaciones: 0 mm    
Historical Graphs
 
 
Datos de tabla para January 4, 2016
Tiempo Temperatura Punto de rocío Pression baro Viento Velocidad del Viento Ráfagas de viento Humedad Las precipitaciones Rate ( Hora )
-17.8 °C -17.8 °C 0 hPa Calm     Humidity % 0 mm
00:04 -7.8 °C -9.3 °C 34462.7 hPa West 41.4 km/h 59.5 km/h 84 % 0 mm
00:09 -7.8 °C -9.3 °C 34462.7 hPa West 41.4 km/h 59.5 km/h 84 % 0 mm
00:14 -7.7 °C -9.2 °C 34462.7 hPa West 41.4 km/h 59.5 km/h 85 % 0 mm
00:19 -7.7 °C -9.2 °C 34452.6 hPa West 44.1 km/h 57 km/h 85 % 0 mm
00:24 -7.7 °C -9.1 °C 34452.6 hPa West 44.1 km/h 59.5 km/h 85 % 0 mm
00:29 -7.7 °C -9.2 °C 34452.6 hPa West 44.1 km/h 54.4 km/h 84 % 0 mm
00:34 -7.7 °C -9.1 °C 34442.4 hPa West 44.1 km/h 69.8 km/h 85 % 0 mm
00:39 -7.8 °C -9.2 °C 34442.4 hPa West 46.7 km/h 69.8 km/h 85 % 0 mm
00:44 -7.8 °C -9.2 °C 34442.4 hPa West 46.7 km/h 64.7 km/h 86 % 0 mm
00:49 -7.8 °C -9.3 °C 34442.4 hPa West 41.4 km/h 64.7 km/h 85 % 0 mm
00:54 -7.8 °C -9.3 °C 34442.4 hPa West 46.7 km/h 80.3 km/h 85 % 0 mm
00:59 -7.9 °C -9.3 °C 34442.4 hPa West 23.3 km/h 59.5 km/h 85 % 0 mm
01:04 -7.9 °C -9.3 °C 34452.6 hPa West 51.8 km/h 64.7 km/h 85 % 0 mm
01:09 -7.9 °C -9.2 °C 34452.6 hPa West 51.8 km/h 72.6 km/h 86 % 0 mm
01:14 -7.9 °C -9.3 °C 34452.6 hPa West 51.8 km/h 62.1 km/h 86 % 0 mm
01:19 -7.9 °C -9.3 °C 34442.4 hPa West 44.1 km/h 72.6 km/h 86 % 0 mm
01:24 -8 °C -9.3 °C 34442.4 hPa West 46.7 km/h 69.8 km/h 86 % 0 mm
01:29 -8 °C -9.3 °C 34442.4 hPa WSW 44.1 km/h 64.7 km/h 86 % 0 mm
01:39 -7.9 °C -9.3 °C 34428.8 hPa WSW 57 km/h 75.2 km/h 86 % 0 mm
01:44 -7.9 °C -9.3 °C 34428.8 hPa WSW 44.1 km/h 77.7 km/h 86 % 0 mm
01:49 -7.9 °C -9.3 °C 34428.8 hPa WSW 54.4 km/h 72.6 km/h 86 % 0 mm
01:54 -7.9 °C -9.3 °C 34428.8 hPa WSW 51.8 km/h 69.8 km/h 86 % 0 mm
01:59 -7.9 °C -9.3 °C 34428.8 hPa WSW 51.8 km/h 67.3 km/h 86 % 0 mm
02:04 -7.9 °C -9.3 °C 34428.8 hPa WSW 51.8 km/h 72.6 km/h 86 % 0 mm
02:09 -7.9 °C -9.3 °C 34428.8 hPa WSW 57 km/h 80.3 km/h 86 % 0 mm
02:14 -8 °C -9.2 °C 34428.8 hPa WSW 54.4 km/h 64.7 km/h 87 % 0 mm
02:19 -8 °C -9.2 °C 34428.8 hPa WSW 51.8 km/h 62.1 km/h 87 % 0 mm
02:24 -8.1 °C -9.3 °C 34418.7 hPa WSW 51.8 km/h 69.8 km/h 87 % 0 mm
02:34 -8.1 °C -9.2 °C 34418.7 hPa WSW 51.8 km/h 64.7 km/h 88 % 0 mm
02:39 -8.1 °C -9.2 °C 34428.8 hPa WSW 44.1 km/h 67.3 km/h 88 % 0 mm
02:44 -8.1 °C -9.2 °C 34418.7 hPa WSW 46.7 km/h 64.7 km/h 88 % 0 mm
02:49 -8.1 °C -9.2 °C 34418.7 hPa WSW 38.8 km/h 51.8 km/h 88 % 0 mm
02:54 -8.2 °C -9.2 °C 34428.8 hPa WSW 44.1 km/h 54.4 km/h 89 % 0 mm
02:59 -8.2 °C -9.2 °C 34418.7 hPa West 46.7 km/h 64.7 km/h 89 % 0 mm
03:04 -8.2 °C -9.1 °C 34418.7 hPa WSW 46.7 km/h 67.3 km/h 90 % 0 mm
03:09 -8.2 °C -9.1 °C 34418.7 hPa WSW 46.7 km/h 62.1 km/h 90 % 0 mm
03:14 -8.2 °C -9.1 °C 34418.7 hPa WSW 41.4 km/h 62.1 km/h 90 % 0 mm
03:19 -8.2 °C -9.1 °C 34418.7 hPa WSW 38.8 km/h 64.7 km/h 90 % 0 mm
03:24 -8.2 °C -9.1 °C 34418.7 hPa West 31.1 km/h 54.4 km/h 90 % 0 mm
03:29 -8.1 °C -9.1 °C 34418.7 hPa West 33.6 km/h 41.4 km/h 89 % 0 mm
03:34 -8 °C -9.1 °C 34418.7 hPa West 20.8 km/h 36.2 km/h 88 % 0 mm
03:39 -7.9 °C -9.2 °C 34418.7 hPa West 25.9 km/h 41.4 km/h 87 % 0 mm
03:44 -7.9 °C -9.3 °C 34405.1 hPa West 23.3 km/h 41.4 km/h 86 % 0 mm
03:49 -7.9 °C -9.2 °C 34418.7 hPa West 23.3 km/h 36.2 km/h 86 % 0 mm
03:54 -7.9 °C -9.3 °C 34418.7 hPa West 23.3 km/h 38.8 km/h 85 % 0 mm
03:59 -7.9 °C -9.4 °C 34418.7 hPa West 31.1 km/h 44.1 km/h 84 % 0 mm
04:04 -7.8 °C -9.4 °C 34418.7 hPa West 31.1 km/h 38.8 km/h 84 % 0 mm
04:09 -7.8 °C -9.5 °C 34405.1 hPa West 25.9 km/h 36.2 km/h 83 % 0 mm
04:14 -7.8 °C -9.6 °C 34405.1 hPa West 25.9 km/h 36.2 km/h 82 % 0 mm
04:19 -7.8 °C -9.6 °C 34405.1 hPa West 20.8 km/h 33.6 km/h 81 % 0 mm
04:24 -7.7 °C -9.7 °C 34405.1 hPa West 20.8 km/h 31.1 km/h 80 % 0 mm
04:29 -7.7 °C -9.8 °C 34405.1 hPa West 23.3 km/h 33.6 km/h 78 % 0 mm
04:34 -7.6 °C -9.9 °C 34405.1 hPa West 20.8 km/h 33.6 km/h 77 % 0 mm
04:39 -7.6 °C -9.9 °C 34405.1 hPa West 31.1 km/h 41.4 km/h 76 % 0 mm
04:44 -7.6 °C -9.8 °C 34405.1 hPa West 36.2 km/h 46.7 km/h 77 % 0 mm
04:49 -7.7 °C -9.8 °C 34395 hPa West 33.6 km/h 44.1 km/h 78 % 0 mm
04:54 -7.7 °C -9.9 °C 34395 hPa West 36.2 km/h 46.7 km/h 78 % 0 mm
04:59 -7.7 °C -9.9 °C 34395 hPa West 36.2 km/h 46.7 km/h 78 % 0 mm
05:04 -7.7 °C -9.8 °C 34395 hPa West 31.1 km/h 46.7 km/h 79 % 0 mm
05:09 -7.7 °C -9.8 °C 34395 hPa West 33.6 km/h 44.1 km/h 79 % 0 mm
05:14 -7.7 °C -9.7 °C 34405.1 hPa West 33.6 km/h 51.8 km/h 79 % 0 mm
05:19 -7.7 °C -9.7 °C 34405.1 hPa West 33.6 km/h 51.8 km/h 79 % 0 mm
05:24 -7.7 °C -9.6 °C 34395 hPa WSW 41.4 km/h 59.5 km/h 81 % 0 mm
05:29 -7.9 °C -9.6 °C 34395 hPa West 44.1 km/h 54.4 km/h 82 % 0 mm
05:34 -7.9 °C -9.6 °C 34395 hPa West 41.4 km/h 62.1 km/h 83 % 0 mm
05:39 -8 °C -9.6 °C 34395 hPa West 33.6 km/h 62.1 km/h 84 % 0 mm
05:44 -8.1 °C -9.6 °C 34395 hPa West 41.4 km/h 62.1 km/h 84 % 0 mm
05:49 -8.1 °C -9.5 °C 34384.8 hPa West 41.4 km/h 62.1 km/h 85 % 0 mm
05:54 -8.1 °C -9.6 °C 34384.8 hPa West 46.7 km/h 69.8 km/h 85 % 0 mm
05:59 -8.2 °C -9.5 °C 34384.8 hPa West 44.1 km/h 64.7 km/h 86 % 0 mm
06:04 -8.2 °C -9.6 °C 34371.3 hPa West 44.1 km/h 62.1 km/h 86 % 0 mm
06:09 -8.2 °C -9.4 °C 34384.8 hPa West 44.1 km/h 67.3 km/h 87 % 0 mm
06:14 -8.2 °C -9.4 °C 34371.3 hPa West 46.7 km/h 64.7 km/h 87 % 0 mm
06:19 -8.2 °C -9.6 °C 34371.3 hPa West 44.1 km/h 64.7 km/h 86 % 0 mm
06:24 -8.2 °C -9.5 °C 34371.3 hPa West 57 km/h 72.6 km/h 86 % 0 mm
06:29 -8.1 °C -9.6 °C 34371.3 hPa West 38.8 km/h 67.3 km/h 85 % 0 mm
06:34 -8.1 °C -9.6 °C 34371.3 hPa West 46.7 km/h 69.8 km/h 84 % 0 mm
06:39 -8 °C -9.6 °C 34371.3 hPa West 44.1 km/h 75.2 km/h 84 % 0 mm
06:44 -8 °C -9.6 °C 34361.1 hPa West 38.8 km/h 69.8 km/h 83 % 0 mm
06:49 -8 °C -9.6 °C 34361.1 hPa West 46.7 km/h 67.3 km/h 83 % 0 mm
06:54 -8 °C -9.6 °C 34361.1 hPa West 51.8 km/h 62.1 km/h 83 % 0 mm
06:59 -8 °C -9.7 °C 34371.3 hPa West 51.8 km/h 67.3 km/h 83 % 0 mm
07:09 -8 °C -9.6 °C 34371.3 hPa West 46.7 km/h 62.1 km/h 83 % 0 mm
07:14 -8 °C -9.5 °C 34371.3 hPa West 41.4 km/h 54.4 km/h 84 % 0 mm
07:19 -7.9 °C -9.5 °C 34371.3 hPa West 46.7 km/h 59.5 km/h 84 % 0 mm
07:24 -7.9 °C -9.6 °C 34371.3 hPa WSW 46.7 km/h 69.8 km/h 83 % 0 mm
07:29 -7.9 °C -9.5 °C 34371.3 hPa West 44.1 km/h 67.3 km/h 84 % 0 mm
07:34 -8 °C -9.5 °C 34371.3 hPa WSW 44.1 km/h 59.5 km/h 84 % 0 mm
07:39 -8 °C -9.6 °C 34371.3 hPa West 44.1 km/h 54.4 km/h 84 % 0 mm
07:44 -8.1 °C -9.5 °C 34371.3 hPa West 41.4 km/h 59.5 km/h 85 % 0 mm
07:49 -8.1 °C -9.4 °C 34371.3 hPa West 44.1 km/h 59.5 km/h 86 % 0 mm
07:54 -8.1 °C -9.4 °C 34371.3 hPa West 33.6 km/h 59.5 km/h 86 % 0 mm
07:59 -8.1 °C -9.4 °C 34371.3 hPa West 41.4 km/h 54.4 km/h 86 % 0 mm
08:04 -8.2 °C -9.4 °C 34371.3 hPa WSW 41.4 km/h 57 km/h 87 % 0 mm
08:09 -8.2 °C -9.3 °C 34371.3 hPa West 41.4 km/h 62.1 km/h 88 % 0 mm
08:14 -8.3 °C -9.4 °C 34371.3 hPa West 46.7 km/h 64.7 km/h 88 % 0 mm
08:19 -8.4 °C -9.4 °C 34371.3 hPa West 41.4 km/h 54.4 km/h 89 % 0 mm
08:24 -8.4 °C -9.4 °C 34371.3 hPa West 41.4 km/h 57 km/h 89 % 0 mm
08:29 -8.4 °C -9.3 °C 34361.1 hPa West 46.7 km/h 62.1 km/h 90 % 0 mm
08:34 -8.3 °C -9.3 °C 34361.1 hPa West 38.8 km/h 51.8 km/h 90 % 0 mm
08:39 -8.3 °C -9.3 °C 34361.1 hPa West 38.8 km/h 51.8 km/h 89 % 0 mm
08:44 -8.2 °C -9.2 °C 34361.1 hPa West 41.4 km/h 51.8 km/h 89 % 0 mm
08:49 -8.1 °C -9.2 °C 34361.1 hPa WSW 46.7 km/h 57 km/h 88 % 0 mm
08:54 -8 °C -9.3 °C 34361.1 hPa West 41.4 km/h 59.5 km/h 87 % 0 mm
08:59 -8 °C -9.2 °C 34361.1 hPa WSW 44.1 km/h 62.1 km/h 87 % 0 mm
09:04 -8.1 °C -9.3 °C 34371.3 hPa WSW 51.8 km/h 72.6 km/h 87 % 0 mm
09:09 -8.1 °C -9.3 °C 34371.3 hPa WSW 51.8 km/h 72.6 km/h 87 % 0 mm
09:14 -8 °C -9.2 °C 34371.3 hPa WSW 54.4 km/h 67.3 km/h 87 % 0 mm
09:19 -8.1 °C -9.3 °C 34371.3 hPa WSW 51.8 km/h 67.3 km/h 87 % 0 mm
09:24 -8.2 °C -9.3 °C 34371.3 hPa WSW 51.8 km/h 80.3 km/h 88 % 0 mm
09:29 -8.3 °C -9.3 °C 34371.3 hPa WSW 46.7 km/h 67.3 km/h 89 % 0 mm
09:34 -8.3 °C -9.3 °C 34384.8 hPa WSW 41.4 km/h 67.3 km/h 90 % 0 mm
09:39 -8.4 °C -9.3 °C 34384.8 hPa WSW 36.2 km/h 62.1 km/h 90 % 0 mm
09:44 -8.4 °C -9.2 °C 34371.3 hPa West 44.1 km/h 64.7 km/h 91 % 0 mm
09:49 -8.4 °C -9.2 °C 34371.3 hPa West 36.2 km/h 57 km/h 91 % 0 mm
09:54 -8.4 °C -9.3 °C 34384.8 hPa West 33.6 km/h 51.8 km/h 91 % 0 mm
09:59 -8.4 °C -9.2 °C 34384.8 hPa West 38.8 km/h 72.6 km/h 92 % 0 mm
10:04 -8.4 °C -9.1 °C 34371.3 hPa West 33.6 km/h 57 km/h 92 % 0 mm
10:09 -8.3 °C -9.2 °C 34371.3 hPa West 38.8 km/h 54.4 km/h 91 % 0 mm
10:14 -8.3 °C -9.1 °C 34371.3 hPa West 38.8 km/h 57 km/h 91 % 0 mm
10:19 -8.2 °C -9.1 °C 34371.3 hPa West 38.8 km/h 51.8 km/h 90 % 0 mm
10:24 -8.1 °C -9 °C 34371.3 hPa WSW 36.2 km/h 51.8 km/h 90 % 0 mm
10:29 -8 °C -9.1 °C 34371.3 hPa WSW 41.4 km/h 62.1 km/h 89 % 0 mm
10:34 -7.9 °C -9.2 °C 34371.3 hPa WSW 51.8 km/h 64.7 km/h 87 % 0 mm
10:39 -7.8 °C -9.2 °C 34371.3 hPa WSW 57 km/h 72.6 km/h 86 % 0 mm
10:44 -7.8 °C -9.2 °C 34371.3 hPa WSW 59.5 km/h 80.3 km/h 86 % 0 mm
10:49 -7.8 °C -9.2 °C 34384.8 hPa WSW 54.4 km/h 69.8 km/h 85 % 0 mm
10:54 -7.6 °C -9.1 °C 34384.8 hPa WSW 44.1 km/h 67.3 km/h 84 % 0 mm
10:59 -7.6 °C -9.2 °C 34384.8 hPa WSW 44.1 km/h 64.7 km/h 83 % 0 mm
11:04 -7.7 °C -9.3 °C 34384.8 hPa WSW 54.4 km/h 67.3 km/h 84 % 0 mm
11:09 -7.9 °C -9.3 °C 34384.8 hPa WSW 51.8 km/h 67.3 km/h 85 % 0 mm
11:19 -8.1 °C -9.3 °C 34384.8 hPa WSW 46.7 km/h 72.6 km/h 87 % 0 mm
11:24 -8.2 °C -9.3 °C 34384.8 hPa WSW 46.7 km/h 64.7 km/h 88 % 0 mm
11:29 -8.3 °C -9.2 °C 34384.8 hPa WSW 51.8 km/h 69.8 km/h 90 % 0 mm
11:34 -8.3 °C -9.3 °C 34384.8 hPa WSW 51.8 km/h 69.8 km/h 90 % 0 mm
11:39 -8.3 °C -9.2 °C 34384.8 hPa WSW 46.7 km/h 67.3 km/h 90 % 0 mm
11:44 -8.2 °C -9.2 °C 34384.8 hPa WSW 41.4 km/h 72.6 km/h 90 % 0 mm
11:49 -8.2 °C -9.2 °C 34371.3 hPa WSW 51.8 km/h 67.3 km/h 89 % 0 mm
11:54 -8.1 °C -9.2 °C 34371.3 hPa WSW 57 km/h 77.7 km/h 88 % 0 mm
11:59 -7.9 °C -9.2 °C 34361.1 hPa WSW 44.1 km/h 62.1 km/h 87 % 0 mm
12:04 -7.8 °C -9.1 °C 34361.1 hPa WSW 46.7 km/h 59.5 km/h 86 % 0 mm
12:09 -7.7 °C -9.2 °C 34361.1 hPa WSW 41.4 km/h 57 km/h 84 % 0 mm
12:14 -7.6 °C -9.3 °C 34361.1 hPa WSW 51.8 km/h 75.2 km/h 83 % 0 mm
12:19 -7.6 °C -9.3 °C 34361.1 hPa WSW 59.5 km/h 82.9 km/h 83 % 0 mm
12:24 -7.6 °C -9.3 °C 34361.1 hPa WSW 57 km/h 82.9 km/h 83 % 0 mm
12:29 -7.6 °C -9.2 °C 34361.1 hPa WSW 62.1 km/h 80.3 km/h 83 % 0 mm
12:34 -7.7 °C -9.3 °C 34361.1 hPa WSW 54.4 km/h 77.7 km/h 83 % 0 mm
12:39 -7.7 °C -9.3 °C 34347.6 hPa WSW 57 km/h 72.6 km/h 83 % 0 mm
12:44 -7.6 °C -9.2 °C 34347.6 hPa WSW 38.8 km/h 64.7 km/h 83 % 0 mm
12:49 -7.5 °C -9.2 °C 34347.6 hPa WSW 41.4 km/h 62.1 km/h 82 % 0 mm
12:54 -7.4 °C -9.3 °C 34337.4 hPa West 44.1 km/h 59.5 km/h 81 % 0 mm
12:59 -7.3 °C -9.3 °C 34337.4 hPa West 41.4 km/h 62.1 km/h 80 % 0 mm
13:04 -7.3 °C -9.3 °C 34327.3 hPa WSW 36.2 km/h 62.1 km/h 79 % 0 mm
13:09 -7.2 °C -9.3 °C 34327.3 hPa West 41.4 km/h 69.8 km/h 79 % 0 mm
13:14 -7.2 °C -9.3 °C 34327.3 hPa WSW 46.7 km/h 59.5 km/h 79 % 0 mm
13:19 -7.2 °C -9.3 °C 34327.3 hPa WSW 54.4 km/h 69.8 km/h 79 % 0 mm
13:24 -7.4 °C -9.2 °C 34313.7 hPa WSW 57 km/h 72.6 km/h 81 % 0 mm
13:29 -7.6 °C -9.2 °C 34327.3 hPa WSW 46.7 km/h 75.2 km/h 83 % 0 mm
13:34 -7.7 °C -9.2 °C 34313.7 hPa WSW 38.8 km/h 67.3 km/h 84 % 0 mm
13:39 -7.8 °C -9.2 °C 34313.7 hPa WSW 33.6 km/h 57 km/h 85 % 0 mm
13:44 -7.8 °C -9.1 °C 34303.6 hPa WSW 33.6 km/h 46.7 km/h 86 % 0 mm
13:54 -7.8 °C -9.2 °C 34303.6 hPa WSW 31.1 km/h 33.6 km/h 86 % 0 mm
14:04 -7.7 °C -9.3 °C 34303.6 hPa WSW 23.3 km/h 36.2 km/h 84 % 0 mm
14:09 -7.6 °C -9.3 °C 34303.6 hPa West 33.6 km/h 46.7 km/h 83 % 0 mm
14:14 -7.4 °C -9.4 °C 34293.4 hPa West 23.3 km/h 54.4 km/h 79 % 0 mm
14:19 -7.3 °C -9.6 °C 34293.4 hPa West 18.2 km/h 36.2 km/h 77 % 0 mm
14:24 -7.1 °C -9.8 °C 34303.6 hPa WNW 38.8 km/h 69.8 km/h 74 % 0 mm
14:29 -7.1 °C -9.9 °C 34293.4 hPa West 36.2 km/h 51.8 km/h 72 % 0 mm
14:39 -7.1 °C -10.1 °C 34279.9 hPa WNW 25.9 km/h 31.1 km/h 71 % 0 mm
14:44 -7.1 °C -10.1 °C 34279.9 hPa WNW 25.9 km/h 31.1 km/h 71 % 0 mm
14:49 -7.1 °C -10.1 °C 34279.9 hPa WNW 25.9 km/h 31.1 km/h 71 % 0 mm
14:54 -7.1 °C -10.1 °C 34279.9 hPa WNW 25.9 km/h 31.1 km/h 71 % 0 mm
14:59 -7.1 °C -10.1 °C 34279.9 hPa WNW 25.9 km/h 31.1 km/h 71 % 0 mm
15:04 -7.1 °C -10.1 °C 34279.9 hPa WNW 25.9 km/h 31.1 km/h 71 % 0 mm
15:09 -7.1 °C -10.1 °C 34279.9 hPa WNW 25.9 km/h 31.1 km/h 71 % 0 mm
15:14 -7.1 °C -10.1 °C 34279.9 hPa WNW 25.9 km/h 31.1 km/h 71 % 0 mm
15:19 -7.1 °C -10.1 °C 34279.9 hPa WNW 25.9 km/h 31.1 km/h 71 % 0 mm
15:24 -7.1 °C -10.1 °C 34279.9 hPa WNW 25.9 km/h 31.1 km/h 71 % 0 mm
15:29 -7.1 °C -10.1 °C 34279.9 hPa WNW 25.9 km/h 31.1 km/h 71 % 0 mm
15:34 -7.1 °C -10.1 °C 34279.9 hPa WNW 25.9 km/h 31.1 km/h 71 % 0 mm
15:39 -7.1 °C -10.1 °C 34279.9 hPa WNW 25.9 km/h 31.1 km/h 71 % 0 mm
15:44 -7.1 °C -10.1 °C 34279.9 hPa WNW 25.9 km/h 31.1 km/h 71 % 0 mm
15:49 -7.1 °C -10.1 °C 34279.9 hPa WNW 25.9 km/h 31.1 km/h 71 % 0 mm
15:54 -7.1 °C -10.1 °C 34279.9 hPa WNW 25.9 km/h 31.1 km/h 71 % 0 mm
15:59 -7.1 °C -10.1 °C 34279.9 hPa WNW 25.9 km/h 31.1 km/h 71 % 0 mm
16:04 -7.1 °C -10.1 °C 34279.9 hPa WNW 25.9 km/h 31.1 km/h 71 % 0 mm
16:09 -7.1 °C -10.1 °C 34279.9 hPa WNW 25.9 km/h 31.1 km/h 71 % 0 mm
16:14 -7.1 °C -10.1 °C 34279.9 hPa WNW 25.9 km/h 31.1 km/h 71 % 0 mm
16:19 -7.1 °C -10.1 °C 34279.9 hPa WNW 25.9 km/h 31.1 km/h 71 % 0 mm
16:24 -7.1 °C -10.1 °C 34279.9 hPa WNW 25.9 km/h 31.1 km/h 71 % 0 mm
16:29 -7.1 °C -10.1 °C 34279.9 hPa WNW 25.9 km/h 31.1 km/h 71 % 0 mm
16:34 -7.1 °C -10.1 °C 34279.9 hPa WNW 25.9 km/h 31.1 km/h 71 % 0 mm
16:39 -7.1 °C -10.1 °C 34279.9 hPa WNW 25.9 km/h 31.1 km/h 71 % 0 mm
16:44 -7.1 °C -10.1 °C 34279.9 hPa WNW 25.9 km/h 31.1 km/h 71 % 0 mm
16:49 -7.1 °C -10.1 °C 34279.9 hPa WNW 25.9 km/h 31.1 km/h 71 % 0 mm
16:54 -7.1 °C -10.1 °C 34279.9 hPa WNW 25.9 km/h 31.1 km/h 71 % 0 mm
16:59 -7.1 °C -10.1 °C 34279.9 hPa WNW 25.9 km/h 31.1 km/h 71 % 0 mm
17:04 -7.1 °C -10.1 °C 34279.9 hPa WNW 25.9 km/h 31.1 km/h 71 % 0 mm
17:09 -7.1 °C -10.1 °C 34279.9 hPa WNW 25.9 km/h 31.1 km/h 71 % 0 mm
17:14 -7.1 °C -10.1 °C 34279.9 hPa WNW 25.9 km/h 31.1 km/h 71 % 0 mm
17:19 -7.1 °C -10.1 °C 34279.9 hPa WNW 25.9 km/h 31.1 km/h 71 % 0 mm
17:24 -7.1 °C -10.1 °C 34279.9 hPa WNW 25.9 km/h 31.1 km/h 71 % 0 mm
17:29 -7.1 °C -10.1 °C 34279.9 hPa WNW 25.9 km/h 31.1 km/h 71 % 0 mm
17:34 -7.1 °C -10.1 °C 34279.9 hPa WNW 25.9 km/h 31.1 km/h 71 % 0 mm
17:39 -7.1 °C -10.1 °C 34279.9 hPa WNW 25.9 km/h 31.1 km/h 71 % 0 mm
17:44 -7.1 °C -10.1 °C 34279.9 hPa WNW 25.9 km/h 31.1 km/h 71 % 0 mm
17:49 -7.1 °C -10.1 °C 34279.9 hPa WNW 25.9 km/h 31.1 km/h 71 % 0 mm
17:54 -7.1 °C -10.1 °C 34279.9 hPa WNW 25.9 km/h 31.1 km/h 71 % 0 mm
17:59 -7.1 °C -10.1 °C 34279.9 hPa WNW 25.9 km/h 31.1 km/h 71 % 0 mm
18:04 -7.1 °C -10.1 °C 34279.9 hPa WNW 25.9 km/h 31.1 km/h 71 % 0 mm
18:09 -7.1 °C -10.1 °C 34279.9 hPa WNW 25.9 km/h 31.1 km/h 71 % 0 mm
18:14 -7.1 °C -10.1 °C 34279.9 hPa WNW 25.9 km/h 31.1 km/h 71 % 0 mm
18:19 -7.1 °C -10.1 °C 34279.9 hPa WNW 25.9 km/h 31.1 km/h 71 % 0 mm
18:24 -7.1 °C -10.1 °C 34279.9 hPa WNW 25.9 km/h 31.1 km/h 71 % 0 mm
18:34 -7.1 °C -10.1 °C 34279.9 hPa WNW 25.9 km/h 31.1 km/h 71 % 0 mm
18:39 -7.1 °C -10.1 °C 34279.9 hPa WNW 25.9 km/h 31.1 km/h 71 % 0 mm
18:44 -7.1 °C -10.1 °C 34279.9 hPa WNW 25.9 km/h 31.1 km/h 71 % 0 mm
18:49 -7.1 °C -10.1 °C 34279.9 hPa WNW 25.9 km/h 31.1 km/h 71 % 0 mm
18:54 -7.1 °C -10.1 °C 34279.9 hPa WNW 25.9 km/h 31.1 km/h 71 % 0 mm
19:04 -7.1 °C -10.1 °C 34279.9 hPa WNW 25.9 km/h 31.1 km/h 71 % 0 mm
19:09 -7.1 °C -10.1 °C 34279.9 hPa WNW 25.9 km/h 31.1 km/h 71 % 0 mm
19:14 -7.1 °C -10.1 °C 34279.9 hPa WNW 25.9 km/h 31.1 km/h 71 % 0 mm
19:19 -7.1 °C -10.1 °C 34279.9 hPa WNW 25.9 km/h 31.1 km/h 71 % 0 mm
19:24 -7.1 °C -10.1 °C 34279.9 hPa WNW 25.9 km/h 31.1 km/h 71 % 0 mm
19:29 -7.1 °C -10.1 °C 34279.9 hPa WNW 25.9 km/h 31.1 km/h 71 % 0 mm
19:34 -7.1 °C -10.1 °C 34279.9 hPa WNW 25.9 km/h 31.1 km/h 71 % 0 mm
19:39 -7.1 °C -10.1 °C 34279.9 hPa WNW 25.9 km/h 31.1 km/h 71 % 0 mm
19:44 -7.1 °C -10.1 °C 34279.9 hPa WNW 25.9 km/h 31.1 km/h 71 % 0 mm
19:49 -7.1 °C -10.1 °C 34279.9 hPa WNW 25.9 km/h 31.1 km/h 71 % 0 mm
19:54 -7.1 °C -10.1 °C 34279.9 hPa WNW 25.9 km/h 31.1 km/h 71 % 0 mm
19:59 -7.1 °C -10.1 °C 34279.9 hPa WNW 25.9 km/h 31.1 km/h 71 % 0 mm
20:04 -7.1 °C -10.1 °C 34279.9 hPa WNW 25.9 km/h 31.1 km/h 71 % 0 mm
20:09 -7.1 °C -10.1 °C 34279.9 hPa WNW 25.9 km/h 31.1 km/h 71 % 0 mm
20:14 -7.1 °C -10.1 °C 34279.9 hPa WNW 25.9 km/h 31.1 km/h 71 % 0 mm
20:19 -7.1 °C -10.1 °C 34279.9 hPa WNW 25.9 km/h 31.1 km/h 71 % 0 mm
20:24 -7.1 °C -10.1 °C 34279.9 hPa WNW 25.9 km/h 31.1 km/h 71 % 0 mm
20:29 -7.1 °C -10.1 °C 34279.9 hPa WNW 25.9 km/h 31.1 km/h 71 % 0 mm
20:34 -7.1 °C -10.1 °C 34279.9 hPa WNW 25.9 km/h 31.1 km/h 71 % 0 mm
20:39 -7.1 °C -10.1 °C 34279.9 hPa WNW 25.9 km/h 31.1 km/h 71 % 0 mm
20:44 -7.1 °C -10.1 °C 34279.9 hPa WNW 25.9 km/h 31.1 km/h 71 % 0 mm
20:54 -7.1 °C -10.1 °C 34279.9 hPa WNW 25.9 km/h 31.1 km/h 71 % 0 mm
20:59 -7.1 °C -10.1 °C 34279.9 hPa WNW 25.9 km/h 31.1 km/h 71 % 0 mm
21:04 -7.1 °C -10.1 °C 34279.9 hPa WNW 25.9 km/h 31.1 km/h 71 % 0 mm
21:09 -7.1 °C -10.1 °C 34279.9 hPa WNW 25.9 km/h 31.1 km/h 71 % 0 mm
21:14 -7.1 °C -10.1 °C 34279.9 hPa WNW 25.9 km/h 31.1 km/h 71 % 0 mm
21:19 -7.1 °C -10.1 °C 34279.9 hPa WNW 25.9 km/h 31.1 km/h 71 % 0 mm
21:24 -7.1 °C -10.1 °C 34279.9 hPa WNW 25.9 km/h 31.1 km/h 71 % 0 mm
21:29 -7.1 °C -10.1 °C 34279.9 hPa WNW 25.9 km/h 31.1 km/h 71 % 0 mm
21:34 -7.1 °C -10.1 °C 34279.9 hPa WNW 25.9 km/h 31.1 km/h 71 % 0 mm
21:39 -7.1 °C -10.1 °C 34279.9 hPa WNW 25.9 km/h 31.1 km/h 71 % 0 mm
21:44 -7.1 °C -10.1 °C 34279.9 hPa WNW 25.9 km/h 31.1 km/h 71 % 0 mm
21:49 -7.1 °C -10.1 °C 34279.9 hPa WNW 25.9 km/h 31.1 km/h 71 % 0 mm
21:54 -7.1 °C -10.1 °C 34279.9 hPa WNW 25.9 km/h 31.1 km/h 71 % 0 mm
21:59 -7.1 °C -10.1 °C 34279.9 hPa WNW 25.9 km/h 31.1 km/h 71 % 0 mm
22:04 -7.1 °C -10.1 °C 34279.9 hPa WNW 25.9 km/h 31.1 km/h 71 % 0 mm
22:14 -7.1 °C -10.1 °C 34279.9 hPa WNW 25.9 km/h 31.1 km/h 71 % 0 mm
22:29 -7.5 °C -10.4 °C 34222.3 hPa West 25.9 km/h 85.5 km/h 71 % 0 mm
22:34 -7.6 °C -10.4 °C 34222.3 hPa West 20.8 km/h 41.4 km/h 72 % 0 mm
22:39 -7.7 °C -10.4 °C 34222.3 hPa West 18.2 km/h 36.2 km/h 73 % 0 mm
22:44 -7.7 °C -10.2 °C 34222.3 hPa WSW 36.2 km/h 51.8 km/h 75 % 0 mm
22:49 -7.8 °C -10.2 °C 34222.3 hPa WSW 46.7 km/h 64.7 km/h 76 % 0 mm
22:54 -8.1 °C -10.1 °C 34222.3 hPa WSW 41.4 km/h 59.5 km/h 79 % 0 mm
22:59 -8.2 °C -10.1 °C 34222.3 hPa WSW 36.2 km/h 54.4 km/h 81 % 0 mm
23:04 -8.3 °C -10.1 °C 34222.3 hPa West 41.4 km/h 54.4 km/h 82 % 0 mm
23:09 -8.4 °C -10.1 °C 34222.3 hPa West 25.9 km/h 46.7 km/h 82 % 0 mm
23:14 -8.4 °C -10.1 °C 34222.3 hPa West 25.9 km/h 38.8 km/h 83 % 0 mm
23:19 -8.4 °C -10 °C 34222.3 hPa West 23.3 km/h 46.7 km/h 83 % 0 mm
23:24 -8.3 °C -10.1 °C 34222.3 hPa West 23.3 km/h 33.6 km/h 82 % 0 mm
23:29 -8.3 °C -10.1 °C 34222.3 hPa West 15.6 km/h 31.1 km/h 81 % 0 mm
23:39 -8.2 °C -10.2 °C 34212.1 hPa West 7.7 km/h 20.8 km/h 80 % 0 mm
23:44 -8.2 °C -10.4 °C 34212.1 hPa WSW 18.2 km/h 25.9 km/h 78 % 0 mm
23:49 -8.2 °C -10.4 °C 34212.1 hPa WSW 15.6 km/h 31.1 km/h 77 % 0 mm
23:54 -8.1 °C -10.6 °C 34212.1 hPa WSW 25.9 km/h 38.8 km/h 75 % 0 mm
23:59 -7.9 °C -10.4 °C 34198.6 hPa West 23.3 km/h 38.8 km/h 75 % 0 mm
Puerto Banus, Marbella
Elogios de Weather Underground - 2 mb

Guión original por  Jim McMurry - jmcmurry@mwt.net Adaptado para la plantilla por  Wim van der Kuil - Leuven-Template.eu

Usted encontrará nuestra información del tiempo también en:

Weather Underground

Iberian Peninsula Weather Network